When you browse on this site, cookies collect data to enhance your experience and personalize the content and advertising you see.
Visit our Privacy Policy to learn more. By continuing to use the site, you agree to this use of cookies and data.
  • In Romania
  • List of Countries
  • For 7 days
  • Water Temperature
  • Satellite Maps
  • Weather Map
  • Weather Widgets
  • user-avatar
    Login

    Hourly Weather Porech

    Today, 18 July, Thursday

    Time Temperature Precipitation Wind Pressure Humidity
    00:00 +23°C° 0 mm 2 mps 757 mmHg 52%
    01:00 +23°C° 0 mm 1 mps 757 mmHg 51%
    02:00 +21°C° 0 mm 2 mps 757 mmHg 51%
    03:00 +21°C° 0 mm 2 mps 756 mmHg 51%
    04:00 +21°C° 0 mm 2 mps 756 mmHg 51%
    05:00 +23°C° 0.1 mm 2 mps 756 mmHg 51%
    06:00 +24°C° 0.1 mm 1 mps 756 mmHg 52%
    07:00 +26°C° 0 mm 1 mps 757 mmHg 48%
    08:00 +27°C° 0.1 mm 1 mps 757 mmHg 47%
    09:00 +28°C° 0.1 mm 1 mps 757 mmHg 46%
    10:00 +29°C° 0.1 mm 2 mps 757 mmHg 44%
    11:00 +30°C° 0 mm 2 mps 757 mmHg 41%
    12:00 +31°C° 0 mm 1 mps 757 mmHg 37%
    13:00 +32°C° 0 mm 1 mps 757 mmHg 34%
    14:00 +31°C° 0.1 mm 1 mps 757 mmHg 35%
    15:00 +30°C° 0.1 mm 1 mps 757 mmHg 37%
    16:00 +29°C° 0.1 mm 1 mps 757 mmHg 39%
    17:00 +28°C° 0 mm 1 mps 757 mmHg 45%
    18:00 +26°C° 0 mm 2 mps 757 mmHg 51%
    19:00 +25°C° 0 mm 2 mps 757 mmHg 58%
    20:00 +24°C° 0 mm 2 mps 758 mmHg 60%
    21:00 +23°C° 0 mm 1 mps 758 mmHg 62%
    22:00 +21°C° 0 mm 0 mps 759 mmHg 64%
    23:00 +22°C° 0 mm 1 mps 759 mmHg 66%

    Tomorrow, 19 July, Friday

    Time Temperature Precipitation Wind Pressure Humidity
    00:00 +22°C° 0 mm 1 mps 759 mmHg 68%
    01:00 +21°C° 0 mm 1 mps 759 mmHg 69%
    02:00 +21°C° 0 mm 1 mps 759 mmHg 68%
    03:00 +20°C° 0 mm 2 mps 759 mmHg 67%
    04:00 +20°C° 0 mm 2 mps 759 mmHg 66%
    05:00 +21°C° 0 mm 2 mps 760 mmHg 63%
    06:00 +24°C° 0 mm 2 mps 760 mmHg 60%
    07:00 +25°C° 0 mm 2 mps 760 mmHg 57%
    08:00 +27°C° 0 mm 2 mps 760 mmHg 49%
    09:00 +29°C° 0 mm 1 mps 760 mmHg 42%
    10:00 +31°C° 0 mm 1 mps 760 mmHg 34%
    11:00 +31°C° 0 mm 1 mps 760 mmHg 35%
    12:00 +31°C° 0 mm 2 mps 760 mmHg 36%
    13:00 +31°C° 0 mm 2 mps 760 mmHg 37%
    14:00 +30°C° 0 mm 2 mps 760 mmHg 38%
    15:00 +30°C° 0 mm 2 mps 760 mmHg 39%
    16:00 +30°C° 0 mm 1 mps 760 mmHg 39%
    17:00 +28°C° 0 mm 1 mps 760 mmHg 47%
    18:00 +27°C° 0 mm 1 mps 760 mmHg 55%
    19:00 +25°C° 0 mm 1 mps 760 mmHg 62%
    20:00 +24°C° 0 mm 2 mps 760 mmHg 65%
    21:00 +23°C° 0 mm 2 mps 761 mmHg 68%
    22:00 +21°C° 0 mm 2 mps 761 mmHg 71%
    23:00 +21°C° 0 mm 2 mps 761 mmHg 68%

    Day after tomorrow, 20 July, Saturday

    Time Temperature Precipitation Wind Pressure Humidity
    00:00 +20°C° 0 mm 2 mps 761 mmHg 66%
    01:00 +20°C° 0 mm 2 mps 761 mmHg 63%
    02:00 +20°C° 0 mm 2 mps 761 mmHg 61%
    03:00 +20°C° 0 mm 2 mps 761 mmHg 60%
    04:00 +20°C° 0 mm 2 mps 761 mmHg 58%
    05:00 +23°C° 0 mm 2 mps 762 mmHg 57%
    06:00 +24°C° 0 mm 2 mps 762 mmHg 56%
    07:00 +26°C° 0 mm 2 mps 762 mmHg 55%
    08:00 +28°C° 0 mm 1 mps 762 mmHg 50%
    09:00 +29°C° 0 mm 1 mps 762 mmHg 46%
    10:00 +31°C° 0 mm 1 mps 762 mmHg 42%
    11:00 +31°C° 0 mm 1 mps 762 mmHg 41%
    12:00 +31°C° 0 mm 1 mps 762 mmHg 40%
    13:00 +31°C° 0 mm 2 mps 762 mmHg 39%
    14:00 +31°C° 0 mm 2 mps 762 mmHg 39%
    15:00 +31°C° 0 mm 1 mps 762 mmHg 40%
    16:00 +31°C° 0 mm 1 mps 762 mmHg 41%
    17:00 +29°C° 0 mm 1 mps 762 mmHg 49%
    18:00 +27°C° 0 mm 1 mps 762 mmHg 57%
    19:00 +26°C° 0 mm 1 mps 762 mmHg 65%
    20:00 +25°C° 0 mm 2 mps 762 mmHg 67%
    21:00 +24°C° 0 mm 2 mps 763 mmHg 70%
    22:00 +22°C° 0 mm 3 mps 763 mmHg 72%
    23:00 +23°C° 0 mm 2 mps 763 mmHg 71%

    21 July, Sunday

    Time Temperature Precipitation Wind Pressure Humidity
    00:00 +23°C° 0 mm 2 mps 763 mmHg 70%
    01:00 +21°C° 0 mm 2 mps 763 mmHg 70%
    02:00 +21°C° 0 mm 2 mps 763 mmHg 70%
    03:00 +21°C° 0 mm 2 mps 763 mmHg 69%
    04:00 +21°C° 0 mm 2 mps 763 mmHg 69%
    05:00 +24°C° 0 mm 2 mps 763 mmHg 66%
    06:00 +25°C° 0 mm 1 mps 763 mmHg 63%
    07:00 +27°C° 0 mm 1 mps 763 mmHg 59%
    08:00 +29°C° 0 mm 1 mps 764 mmHg 54%
    09:00 +30°C° 0 mm 1 mps 764 mmHg 49%
    10:00 +32°C° 0 mm 1 mps 764 mmHg 44%
    11:00 +32°C° 0 mm 1 mps 764 mmHg 44%
    12:00 +32°C° 0 mm 1 mps 763 mmHg 44%
    13:00 +32°C° 0 mm 2 mps 763 mmHg 44%
    14:00 +32°C° 0 mm 1 mps 763 mmHg 45%
    15:00 +32°C° 0 mm 1 mps 763 mmHg 46%
    16:00 +32°C° 0 mm 1 mps 763 mmHg 47%
    17:00 +30°C° 0 mm 1 mps 763 mmHg 54%
    18:00 +29°C° 0 mm 1 mps 763 mmHg 61%
    19:00 +27°C° 0 mm 1 mps 763 mmHg 68%
    20:00 +26°C° 0 mm 1 mps 764 mmHg 70%
    21:00 +25°C° 0 mm 1 mps 764 mmHg 72%
    22:00 +24°C° 0 mm 1 mps 765 mmHg 74%
    23:00 +24°C° 0 mm 1 mps 765 mmHg 73%

    22 July, Monday

    Time Temperature Precipitation Wind Pressure Humidity
    00:00 +24°C° 0 mm 1 mps 764 mmHg 73%
    01:00 +24°C° 0 mm 2 mps 764 mmHg 72%
    02:00 +23°C° 0 mm 2 mps 764 mmHg 71%
    03:00 +22°C° 0 mm 3 mps 764 mmHg 71%
    04:00 +22°C° 0 mm 3 mps 764 mmHg 70%
    05:00 +25°C° 0 mm 3 mps 764 mmHg 67%
    06:00 +26°C° 0 mm 3 mps 764 mmHg 64%
    07:00 +28°C° 0 mm 3 mps 765 mmHg 61%
    08:00 +31°C° 0 mm 3 mps 765 mmHg 54%
    09:00 +35°C° 0 mm 3 mps 765 mmHg 47%
    10:00 +37°C° 0 mm 3 mps 765 mmHg 40%
    11:00 +37°C° 0 mm 3 mps 764 mmHg 40%
    12:00 +37°C° 0 mm 3 mps 764 mmHg 39%
    13:00 +37°C° 0 mm 3 mps 764 mmHg 39%
    14:00 +36°C° 0 mm 3 mps 764 mmHg 41%
    15:00 +36°C° 0 mm 3 mps 763 mmHg 42%
    16:00 +35°C° 0 mm 2 mps 763 mmHg 44%
    17:00 +34°C° 0 mm 2 mps 763 mmHg 51%
    18:00 +31°C° 0 mm 2 mps 763 mmHg 57%
    19:00 +29°C° 0 mm 1 mps 763 mmHg 64%
    20:00 +29°C° 0 mm 2 mps 763 mmHg 65%
    21:00 +28°C° 0 mm 2 mps 764 mmHg 67%
    22:00 +27°C° 0 mm 2 mps 764 mmHg 68%
    23:00 +27°C° 0 mm 2 mps 764 mmHg 68%

    23 July, Tuesday

    Time Temperature Precipitation Wind Pressure Humidity
    00:00 +27°C° 0 mm 2 mps 764 mmHg 69%
    01:00 +26°C° 0 mm 2 mps 764 mmHg 69%
    02:00 +26°C° 0 mm 2 mps 763 mmHg 68%
    03:00 +26°C° 0 mm 2 mps 763 mmHg 68%
    04:00 +26°C° 0 mm 2 mps 763 mmHg 67%
    05:00 +27°C° 0 mm 2 mps 763 mmHg 65%
    06:00 +28°C° 0 mm 1 mps 763 mmHg 63%
    07:00 +29°C° 0 mm 1 mps 763 mmHg 60%
    08:00 +32°C° 0 mm 1 mps 763 mmHg 53%
    09:00 +34°C° 0 mm 1 mps 763 mmHg 47%
    10:00 +36°C° 0 mm 1 mps 763 mmHg 40%
    11:00 +37°C° 0 mm 2 mps 763 mmHg 41%
    12:00 +36°C° 0 mm 2 mps 762 mmHg 42%
    13:00 +36°C° 0 mm 3 mps 762 mmHg 42%
    14:00 +35°C° 0 mm 3 mps 762 mmHg 43%
    15:00 +35°C° 0 mm 3 mps 762 mmHg 44%
    16:00 +35°C° 0 mm 3 mps 761 mmHg 45%
    17:00 +32°C° 0 mm 2 mps 761 mmHg 52%
    18:00 +31°C° 0 mm 2 mps 761 mmHg 59%
    19:00 +29°C° 0 mm 1 mps 761 mmHg 66%
    20:00 +28°C° 0 mm 1 mps 761 mmHg 67%
    21:00 +27°C° 0 mm 2 mps 761 mmHg 68%
    22:00 +27°C° 0 mm 2 mps 762 mmHg 69%
    23:00 +26°C° 0 mm 2 mps 762 mmHg 69%
    Show more